Date,TemperatureHighF,TemperatureAvgF,TemperatureLowF,DewpointHighF,DewpointAvgF,DewpointLowF,HumidityHigh,HumidityAvg,HumidityLow,PressureMaxIn,PressureMinIn,WindSpeedMaxMPH,WindSpeedAvgMPH,GustSpeedMaxMPH,PrecipitationSumIn
2013-7-1,81.9,72.0,66.1,20.1,12.5,7.9,1,1,1,30.03,29.88,0,0,0,0.39
2013-7-2,72.9,70.5,68.0,13.2,11.4,9.5,1,1,1,30.21,30.02,0,0,0,0.34
2013-7-3,84.6,74.0,70.2,22.1,14.1,11.1,1,1,1,30.27,30.18,0,0,0,0.32
2013-7-4,83.7,74.5,70.6,21.2,14.4,11.3,1,1,1,30.30,30.21,0,0,0,0.43
2013-7-5,88.6,77.4,69.5,26.6,16.6,10.5,11,1,1,30.31,30.19,0,0,0,0.00
2013-7-8,74.0,73.5,73.1,14.0,13.7,13.4,1,1,1,30.19,30.18,0,0,0,0.00
2013-7-9,82.3,75.2,68.6,20.3,15.0,9.9,1,1,1,30.20,30.09,0,0,0,0.00
2013-7-10,87.5,76.3,68.8,24.4,15.8,10.1,5,1,1,30.14,29.98,0,0,0,0.61
2013-7-11,76.0,72.9,70.7,15.5,13.2,11.3,1,1,1,30.01,29.91,0,0,0,0.45
2013-7-12,72.7,69.7,66.8,13.2,10.8,8.6,1,1,1,30.07,29.91,0,0,0,0.08
2013-7-13,75.2,70.9,67.1,14.9,11.7,8.8,1,1,1,30.21,30.05,0,0,0,0.14
2013-7-14,86.9,76.4,68.6,49.7,17.0,9.9,28,3,1,30.33,30.20,0,0,0,0.54
2013-7-15,88.7,75.9,66.6,59.8,18.8,-4.3,40,5,1,30.36,30.28,0,0,0,0.01
2013-7-16,91.4,78.1,65.9,54.5,18.6,7.7,29,4,1,30.32,30.22,0,0,0,0.00
2013-7-17,91.3,80.0,70.2,62.3,21.8,4.3,40,5,1,30.26,30.14,0,0,0,0.00
2013-7-18,94.0,80.1,69.1,66.0,23.0,10.3,41,6,1,30.18,30.08,0,0,0,0.00
2013-7-19,90.0,79.4,69.5,55.3,20.4,10.5,31,4,1,30.14,30.02,0,0,0,0.00
2013-7-20,88.2,78.2,70.0,35.0,17.4,11.0,16,2,1,30.06,29.96,0,0,0,0.00
2013-7-21,88.9,76.1,69.5,49.0,16.5,10.5,26,2,1,30.03,29.94,0,0,0,0.02
2013-7-22,87.7,75.6,67.9,43.8,16.3,9.4,23,3,1,29.99,29.87,0,0,0,0.00
2013-7-23,88.7,77.9,68.6,60.3,21.7,-10.5,40,7,1,29.88,29.77,0,0,0,0.00
2013-7-24,90.9,77.9,65.2,69.0,26.3,7.2,49,12,1,29.89,29.78,0,0,0,0.00
2013-7-25,80.1,71.7,62.8,21.0,12.3,5.5,12,2,1,30.07,29.86,0,0,0,0.02
2013-7-26,84.6,71.9,59.4,60.8,21.2,2.8,45,11,1,30.14,30.04,0,0,0,0.00
2013-7-27,82.8,69.7,63.7,30.5,10.8,6.1,16,1,1,30.08,29.96,0,0,0,0.68
2013-7-28,85.9,74.2,65.2,46.2,16.2,7.2,26,4,1,30.05,29.95,0,0,0,0.41
2013-7-29,83.7,72.6,63.7,63.0,25.2,6.1,50,15,1,30.20,30.02,0,0,0,0.00
2013-7-30,84.6,71.5,57.6,61.1,21.4,1.4,48,12,1,30.25,30.17,0,0,0,0.00
2013-7-31,82.3,73.3,65.2,20.3,13.5,7.2,1,1,1,30.18,30.03,0,0,0,0.36